Time,TemperatureF,DewpointF,PressureIn,WindDirection,WindDirectionDegrees,WindSpeedMPH,WindSpeedGustMPH,Humidity,HourlyPrecipIn,Conditions,Clouds,dailyrainin,SoftwareType,DateUTC
2013-01-12 00:03:00,51.6,47.5,29.76,SW,225,7.4,8.3,86,0.00,,,0.00,WUHU21623XXSP,2013-01-12 06:03:00,
2013-01-12 00:08:00,51.6,47.5,29.77,SSW,202,11.0,14.1,86,0.00,,,0.00,WUHU21623XXSP,2013-01-12 06:08:00,
2013-01-12 00:13:00,51.6,47.5,29.77,South,180,7.4,14.1,86,0.00,,,0.00,WUHU21623XXSP,2013-01-12 06:13:00,
2013-01-12 00:18:00,51.6,47.5,29.77,SW,225,13.6,13.6,86,0.00,,,0.00,WUHU21623XXSP,2013-01-12 06:18:00,
2013-01-12 00:23:00,51.4,47.3,29.77,South,180,8.1,16.3,86,0.00,,,0.00,WUHU21623XXSP,2013-01-12 06:23:00,
2013-01-12 00:28:00,51.4,47.3,29.77,South,180,8.7,16.3,86,0.00,,,0.00,WUHU21623XXSP,2013-01-12 06:28:00,
2013-01-12 00:33:00,51.3,47.2,29.77,SSE,157,10.5,10.5,86,0.00,,,0.00,WUHU21623XXSP,2013-01-12 06:33:00,
2013-01-12 00:38:00,51.3,47.2,29.77,SSE,157,10.1,10.5,86,0.00,,,0.00,WUHU21623XXSP,2013-01-12 06:38:00,
2013-01-12 00:43:00,51.4,47.3,29.77,South,180,8.3,10.1,86,0.00,,,0.00,WUHU21623XXSP,2013-01-12 06:43:00,
2013-01-12 00:48:00,51.4,47.3,29.78,SW,225,8.7,8.7,86,0.00,,,0.00,WUHU21623XXSP,2013-01-12 06:48:00,
2013-01-12 00:53:00,51.4,47.3,29.77,South,180,6.0,8.7,86,0.00,,,0.00,WUHU21623XXSP,2013-01-12 06:53:00,
2013-01-12 00:58:00,51.4,47.3,29.77,South,180,8.9,8.9,86,0.00,,,0.00,WUHU21623XXSP,2013-01-12 06:58:00,
2013-01-12 01:03:00,51.4,47.3,29.77,SSW,202,3.4,11.9,86,0.00,,,0.00,WUHU21623XXSP,2013-01-12 07:03:00,
2013-01-12 01:08:00,51.4,47.3,29.77,SSW,202,14.5,14.5,86,0.00,,,0.00,WUHU21623XXSP,2013-01-12 07:08:00,
2013-01-12 01:13:00,51.4,47.3,29.77,South,180,6.5,14.5,86,0.00,,,0.00,WUHU21623XXSP,2013-01-12 07:13:00,
2013-01-12 01:18:00,51.4,47.3,29.77,South,180,6.5,14.5,86,0.00,,,0.00,WUHU21623XXSP,2013-01-12 07:18:00,
2013-01-12 01:23:00,51.4,47.3,29.78,SW,225,11.9,11.9,86,0.00,,,0.00,WUHU21623XXSP,2013-01-12 07:23:00,
2013-01-12 01:28:00,51.4,47.2,29.78,SSW,202,6.5,11.9,85,0.00,,,0.00,WUHU21623XXSP,2013-01-12 07:28:00,
2013-01-12 01:33:00,51.4,47.0,29.78,South,180,8.5,8.5,85,0.00,,,0.00,WUHU21623XXSP,2013-01-12 07:33:00,
2013-01-12 01:38:00,51.4,47.0,29.78,SSW,202,13.9,13.9,85,0.00,,,0.00,WUHU21623XXSP,2013-01-12 07:38:00,
2013-01-12 01:43:00,51.4,47.0,29.78,South,180,3.6,13.9,85,0.00,,,0.00,WUHU21623XXSP,2013-01-12 07:43:00,
2013-01-12 01:48:00,51.3,46.9,29.78,South,180,13.2,13.2,85,0.00,,,0.00,WUHU21623XXSP,2013-01-12 07:48:00,
2013-01-12 01:53:00,51.1,46.7,29.79,South,180,9.2,13.2,85,0.00,,,0.00,WUHU21623XXSP,2013-01-12 07:53:00,
2013-01-12 01:58:00,51.1,46.7,29.79,South,180,9.2,9.2,85,0.00,,,0.00,WUHU21623XXSP,2013-01-12 07:58:00,
2013-01-12 02:03:00,51.1,46.7,29.78,SSE,157,7.8,11.9,85,0.00,,,0.00,WUHU21623XXSP,2013-01-12 08:03:00,
2013-01-12 02:08:00,51.1,46.7,29.78,SSW,202,8.5,11.9,85,0.00,,,0.00,WUHU21623XXSP,2013-01-12 08:08:00,
2013-01-12 02:13:00,50.9,46.5,29.78,SW,225,7.8,8.5,85,0.00,,,0.00,WUHU21623XXSP,2013-01-12 08:13:00,
2013-01-12 02:18:00,50.9,46.5,29.79,South,180,11.6,11.6,85,0.00,,,0.00,WUHU21623XXSP,2013-01-12 08:18:00,
2013-01-12 02:23:00,50.9,46.5,29.80,West,270,7.8,11.6,85,0.00,,,0.00,WUHU21623XXSP,2013-01-12 08:23:00,
2013-01-12 02:28:00,50.9,46.5,29.80,South,180,7.6,11.6,85,0.00,,,0.00,WUHU21623XXSP,2013-01-12 08:28:00,
2013-01-12 02:33:00,50.9,46.5,29.79,South,180,7.6,7.6,85,0.00,,,0.00,WUHU21623XXSP,2013-01-12 08:33:00,
2013-01-12 02:38:00,50.9,46.5,29.79,SSW,202,8.3,11.4,85,0.00,,,0.00,WUHU21623XXSP,2013-01-12 08:38:00,
2013-01-12 02:43:00,50.9,46.5,29.79,SW,225,9.2,9.2,85,0.00,,,0.00,WUHU21623XXSP,2013-01-12 08:43:00,
2013-01-12 02:48:00,50.9,46.5,29.80,SW,225,8.1,11.2,85,0.00,,,0.00,WUHU21623XXSP,2013-01-12 08:48:00,
2013-01-12 02:53:00,51.1,46.7,29.80,SSW,202,6.9,11.2,85,0.00,,,0.00,WUHU21623XXSP,2013-01-12 08:53:00,
2013-01-12 02:59:00,51.1,46.7,29.80,South,180,7.6,8.9,85,0.00,,,0.00,WUHU21623XXSP,2013-01-12 08:59:00,
2013-01-12 03:04:00,51.1,46.7,29.80,SSE,157,10.3,10.3,85,0.00,,,0.00,WUHU21623XXSP,2013-01-12 09:04:00,
2013-01-12 03:09:00,51.1,46.7,29.80,SSE,157,6.3,10.3,85,0.00,,,0.00,WUHU21623XXSP,2013-01-12 09:09:00,
2013-01-12 03:13:00,51.1,46.7,29.80,SSW,202,8.1,10.3,85,0.00,,,0.00,WUHU21623XXSP,2013-01-12 09:13:00,
2013-01-12 03:18:00,51.1,46.7,29.80,South,180,2.9,8.1,85,0.00,,,0.00,WUHU21623XXSP,2013-01-12 09:18:00,
2013-01-12 03:23:00,51.1,46.7,29.80,WSW,247,0.0,6.7,85,0.00,,,0.00,WUHU21623XXSP,2013-01-12 09:23:00,
2013-01-12 03:28:00,50.9,46.5,29.79,SSE,157,7.6,13.2,85,0.00,,,0.00,WUHU21623XXSP,2013-01-12 09:28:00,
2013-01-12 03:34:00,50.7,46.3,29.79,SSW,202,0.9,13.2,85,0.00,,,0.00,WUHU21623XXSP,2013-01-12 09:34:00,
2013-01-12 03:39:00,50.7,46.3,29.79,South,180,0.7,0.9,85,0.00,,,0.00,WUHU21623XXSP,2013-01-12 09:39:00,
2013-01-12 03:44:00,50.7,46.3,29.79,SSW,202,0.0,2.5,85,0.00,,,0.00,WUHU21623XXSP,2013-01-12 09:44:00,
2013-01-12 03:49:00,50.7,46.3,29.79,South,180,2.2,7.8,85,0.00,,,0.00,WUHU21623XXSP,2013-01-12 09:49:00,
2013-01-12 03:54:00,50.7,46.3,29.79,SSW,202,4.7,7.8,85,0.00,,,0.00,WUHU21623XXSP,2013-01-12 09:54:00,
2013-01-12 03:59:00,50.5,46.1,29.79,SSW,202,3.4,7.4,85,0.00,,,0.00,WUHU21623XXSP,2013-01-12 09:59:00,
2013-01-12 04:04:00,50.5,46.1,29.79,SSW,202,6.7,13.0,85,0.00,,,0.00,WUHU21623XXSP,2013-01-12 10:04:00,
2013-01-12 04:09:00,50.5,46.4,29.80,South,180,5.8,13.0,86,0.00,,,0.00,WUHU21623XXSP,2013-01-12 10:09:00,
2013-01-12 04:14:00,50.7,46.6,29.79,South,180,8.5,10.5,86,0.00,,,0.00,WUHU21623XXSP,2013-01-12 10:14:00,
2013-01-12 04:19:00,50.5,46.4,29.79,WSW,247,6.7,10.5,86,0.00,,,0.00,WUHU21623XXSP,2013-01-12 10:19:00,
2013-01-12 04:24:00,50.5,46.4,29.79,South,180,8.1,8.1,86,0.00,,,0.00,WUHU21623XXSP,2013-01-12 10:24:00,
2013-01-12 04:29:00,50.5,46.4,29.79,SSE,157,5.1,8.1,86,0.00,,,0.00,WUHU21623XXSP,2013-01-12 10:29:00,
2013-01-12 04:34:00,50.5,46.4,29.78,SSW,202,8.1,9.4,86,0.00,,,0.00,WUHU21623XXSP,2013-01-12 10:34:00,
2013-01-12 04:39:00,50.5,46.4,29.78,South,180,6.9,8.1,86,0.00,,,0.00,WUHU21623XXSP,2013-01-12 10:39:00,
2013-01-12 04:44:00,50.5,46.4,29.79,SSW,202,3.8,10.7,86,0.00,,,0.00,WUHU21623XXSP,2013-01-12 10:44:00,
2013-01-12 04:49:00,50.5,46.4,29.80,SSW,202,6.5,10.7,86,0.00,,,0.00,WUHU21623XXSP,2013-01-12 10:49:00,
2013-01-12 04:54:00,50.5,46.4,29.80,SSE,157,6.9,9.2,86,0.00,,,0.00,WUHU21623XXSP,2013-01-12 10:54:00,
2013-01-12 04:59:00,50.5,46.4,29.80,WSW,247,5.4,9.2,86,0.00,,,0.00,WUHU21623XXSP,2013-01-12 10:59:00,
2013-01-12 05:04:00,50.5,46.4,29.80,WSW,247,5.8,6.9,86,0.00,,,0.00,WUHU21623XXSP,2013-01-12 11:04:00,
2013-01-12 05:09:00,50.5,46.4,29.80,SSE,157,0.0,6.7,86,0.00,,,0.00,WUHU21623XXSP,2013-01-12 11:09:00,
2013-01-12 05:14:00,50.5,46.4,29.80,South,180,7.6,7.6,86,0.00,,,0.00,WUHU21623XXSP,2013-01-12 11:14:00,
2013-01-12 05:19:00,50.7,46.6,29.80,SSW,202,6.5,7.6,86,0.00,,,0.00,WUHU21623XXSP,2013-01-12 11:19:00,
2013-01-12 05:24:00,50.5,46.6,29.81,SSW,202,6.5,7.6,86,0.00,,,0.00,WUHU21623XXSP,2013-01-12 11:24:00,
2013-01-12 05:29:00,50.5,46.4,29.82,SW,225,7.4,7.4,86,0.00,,,0.00,WUHU21623XXSP,2013-01-12 11:29:00,
2013-01-12 05:34:00,50.5,46.4,29.81,SSW,202,9.8,9.8,86,0.00,,,0.00,WUHU21623XXSP,2013-01-12 11:34:00,
2013-01-12 05:39:00,50.5,46.4,29.81,SSE,157,6.9,9.8,86,0.00,,,0.00,WUHU21623XXSP,2013-01-12 11:39:00,
2013-01-12 05:44:00,50.5,46.7,29.81,SSW,202,8.5,9.2,87,0.00,,,0.00,WUHU21623XXSP,2013-01-12 11:44:00,
2013-01-12 05:49:00,50.5,46.7,29.82,SSW,202,9.6,12.1,87,0.00,,,0.00,WUHU21623XXSP,2013-01-12 11:49:00,
2013-01-12 05:55:00,50.4,46.6,29.81,SSW,202,7.4,12.1,87,0.00,,,0.00,WUHU21623XXSP,2013-01-12 11:55:00,
2013-01-12 05:59:00,50.4,46.6,29.82,SSW,202,3.4,7.4,87,0.00,,,0.00,WUHU21623XXSP,2013-01-12 11:59:00,
2013-01-12 06:05:00,50.4,46.6,29.82,SSW,202,7.2,7.2,87,0.00,,,0.00,WUHU21623XXSP,2013-01-12 12:05:00,
2013-01-12 06:10:00,50.2,46.4,29.82,WNW,292,6.5,7.2,87,0.00,,,0.00,WUHU21623XXSP,2013-01-12 12:10:00,
2013-01-12 06:15:00,50.2,46.4,29.83,SW,225,2.9,6.5,87,0.00,,,0.00,WUHU21623XXSP,2013-01-12 12:15:00,
2013-01-12 06:20:00,50.0,46.2,29.83,SSW,202,1.3,7.4,87,0.00,,,0.00,WUHU21623XXSP,2013-01-12 12:20:00,
2013-01-12 06:25:00,50.0,46.5,29.83,WSW,247,2.7,7.4,88,0.00,,,0.00,WUHU21623XXSP,2013-01-12 12:25:00,
2013-01-12 06:30:00,49.8,46.3,29.83,West,270,0.0,6.3,88,0.00,,,0.00,WUHU21623XXSP,2013-01-12 12:30:00,
2013-01-12 06:35:00,49.8,46.3,29.83,SW,225,0.0,6.3,88,0.00,,,0.00,WUHU21623XXSP,2013-01-12 12:35:00,
2013-01-12 06:40:00,49.8,46.3,29.84,SSW,202,7.6,7.6,88,0.00,,,0.00,WUHU21623XXSP,2013-01-12 12:40:00,
2013-01-12 06:45:00,49.8,46.3,29.85,SSW,202,7.2,7.6,88,0.00,,,0.00,WUHU21623XXSP,2013-01-12 12:45:00,
2013-01-12 06:50:00,49.8,46.3,29.85,SW,225,0.7,7.2,88,0.00,,,0.00,WUHU21623XXSP,2013-01-12 12:50:00,
2013-01-12 06:55:00,49.8,46.3,29.85,SSW,202,3.1,6.9,88,0.00,,,0.00,WUHU21623XXSP,2013-01-12 12:55:00,
2013-01-12 07:00:00,49.8,46.3,29.85,SSW,202,3.8,6.9,88,0.00,,,0.00,WUHU21623XXSP,2013-01-12 13:00:00,
2013-01-12 07:05:00,49.8,46.3,29.85,SSW,202,2.9,6.9,88,0.00,,,0.00,WUHU21623XXSP,2013-01-12 13:05:00,
2013-01-12 07:10:00,49.8,46.3,29.86,WSW,247,9.6,9.6,88,0.00,,,0.00,WUHU21623XXSP,2013-01-12 13:10:00,
2013-01-12 07:15:00,49.8,46.3,29.87,South,180,7.6,9.6,88,0.00,,,0.00,WUHU21623XXSP,2013-01-12 13:15:00,
2013-01-12 07:20:00,49.8,46.3,29.86,South,180,11.2,11.2,88,0.00,,,0.00,WUHU21623XXSP,2013-01-12 13:20:00,
2013-01-12 07:25:00,49.8,46.3,29.86,SSW,202,7.8,11.2,88,0.00,,,0.00,WUHU21623XXSP,2013-01-12 13:25:00,
2013-01-12 07:30:00,49.8,46.3,29.86,SSW,202,2.5,11.2,88,0.00,,,0.00,WUHU21623XXSP,2013-01-12 13:30:00,
2013-01-12 07:35:00,49.8,46.3,29.86,SSW,202,0.0,7.2,88,0.00,,,0.00,WUHU21623XXSP,2013-01-12 13:35:00,
2013-01-12 07:40:00,49.8,46.3,29.87,SW,225,3.6,6.0,88,0.00,,,0.00,WUHU21623XXSP,2013-01-12 13:40:00,
2013-01-12 07:45:00,49.8,46.3,29.87,SSW,202,8.5,8.5,88,0.00,,,0.00,WUHU21623XXSP,2013-01-12 13:45:00,
2013-01-12 07:50:00,49.6,46.2,29.87,SSW,202,6.3,8.5,88,0.00,,,0.00,WUHU21623XXSP,2013-01-12 13:50:00,
2013-01-12 07:55:00,49.6,46.2,29.87,South,180,4.3,8.5,88,0.00,,,0.00,WUHU21623XXSP,2013-01-12 13:55:00,
2013-01-12 08:00:00,49.8,46.3,29.88,WSW,247,0.0,5.6,88,0.00,,,0.00,WUHU21623XXSP,2013-01-12 14:00:00,
2013-01-12 08:05:00,49.8,46.3,29.87,SW,225,2.9,5.6,88,0.00,,,0.00,WUHU21623XXSP,2013-01-12 14:05:00,
2013-01-12 08:10:00,49.8,46.3,29.89,SSW,202,0.0,6.0,88,0.00,,,0.00,WUHU21623XXSP,2013-01-12 14:10:00,
2013-01-12 08:15:00,49.8,46.3,29.89,SW,225,0.0,6.9,88,0.00,,,0.00,WUHU21623XXSP,2013-01-12 14:15:00,
2013-01-12 08:20:00,49.8,46.3,29.89,SW,225,0.0,6.9,88,0.00,,,0.00,WUHU21623XXSP,2013-01-12 14:20:00,
2013-01-12 08:25:00,50.0,46.5,29.90,West,270,0.0,5.8,88,0.00,,,0.00,WUHU21623XXSP,2013-01-12 14:25:00,
2013-01-12 08:30:00,50.2,46.5,29.90,WSW,247,3.4,5.8,88,0.00,,,0.00,WUHU21623XXSP,2013-01-12 14:30:00,
2013-01-12 08:35:00,50.4,46.9,29.90,West,270,0.0,4.5,88,0.00,,,0.00,WUHU21623XXSP,2013-01-12 14:35:00,
2013-01-12 08:40:00,50.4,46.9,29.90,WSW,247,0.0,3.8,88,0.00,,,0.00,WUHU21623XXSP,2013-01-12 14:40:00,
2013-01-12 08:45:00,50.7,47.2,29.90,SW,225,0.0,3.8,88,0.00,,,0.00,WUHU21623XXSP,2013-01-12 14:45:00,
2013-01-12 08:50:00,50.9,47.4,29.91,West,270,5.4,5.4,88,0.00,,,0.00,WUHU21623XXSP,2013-01-12 14:50:00,
2013-01-12 08:55:00,51.1,47.6,29.90,WSW,247,0.0,5.4,88,0.00,,,0.00,WUHU21623XXSP,2013-01-12 14:55:00,
2013-01-12 09:00:00,51.4,47.9,29.90,WSW,247,7.4,7.4,88,0.00,,,0.00,WUHU21623XXSP,2013-01-12 15:00:00,
2013-01-12 09:05:00,51.8,48.0,29.91,WSW,247,0.0,7.4,87,0.00,,,0.00,WUHU21623XXSP,2013-01-12 15:05:00,
2013-01-12 09:10:00,52.2,48.4,29.91,WSW,247,0.0,7.4,87,0.00,,,0.00,WUHU21623XXSP,2013-01-12 15:10:00,
2013-01-12 09:15:00,52.3,48.5,29.91,West,270,0.0,0.9,87,0.00,,,0.00,WUHU21623XXSP,2013-01-12 15:15:00,
2013-01-12 09:20:00,52.5,48.4,29.91,WSW,247,0.0,0.0,86,0.00,,,0.00,WUHU21623XXSP,2013-01-12 15:20:00,
2013-01-12 09:25:00,52.9,48.8,29.90,West,270,0.0,0.0,86,0.00,,,0.00,WUHU21623XXSP,2013-01-12 15:25:00,
2013-01-12 09:30:00,53.2,48.8,29.91,WSW,247,5.6,5.6,85,0.00,,,0.00,WUHU21623XXSP,2013-01-12 15:30:00,
2013-01-12 09:35:00,53.4,49.0,29.91,WSW,247,2.2,5.6,85,0.00,,,0.00,WUHU21623XXSP,2013-01-12 15:35:00,
2013-01-12 09:40:00,53.4,48.7,29.91,WNW,292,0.0,6.0,84,0.00,,,0.00,WUHU21623XXSP,2013-01-12 15:40:00,
2013-01-12 09:45:00,53.8,49.0,29.91,WSW,247,0.0,6.0,84,0.00,,,0.00,WUHU21623XXSP,2013-01-12 15:45:00,
2013-01-12 09:50:00,54.0,49.0,29.91,WNW,292,6.0,6.0,83,0.00,,,0.00,WUHU21623XXSP,2013-01-12 15:50:00,
2013-01-12 09:55:00,54.5,49.2,29.92,WSW,247,6.0,6.0,83,0.00,,,0.00,WUHU21623XXSP,2013-01-12 15:55:00,
2013-01-12 10:00:00,54.7,49.3,29.92,West,270,0.0,6.0,82,0.00,,,0.00,WUHU21623XXSP,2013-01-12 16:00:00,
2013-01-12 10:05:00,54.7,48.9,29.92,WSW,247,8.9,8.9,81,0.00,,,0.00,WUHU21623XXSP,2013-01-12 16:05:00,
2013-01-12 10:10:00,54.5,48.5,29.91,West,270,0.0,8.9,80,0.00,,,0.00,WUHU21623XXSP,2013-01-12 16:10:00,
2013-01-12 10:15:00,54.5,48.5,29.91,West,270,0.0,6.5,80,0.00,,,0.00,WUHU21623XXSP,2013-01-12 16:15:00,
2013-01-12 10:20:00,54.5,48.5,29.91,WSW,247,0.0,4.7,80,0.00,,,0.00,WUHU21623XXSP,2013-01-12 16:20:00,
2013-01-12 10:25:00,54.3,48.3,29.92,West,270,0.0,0.0,80,0.00,,,0.00,WUHU21623XXSP,2013-01-12 16:25:00,
2013-01-12 10:30:00,54.3,48.3,29.92,West,270,2.9,2.9,80,0.00,,,0.00,WUHU21623XXSP,2013-01-12 16:30:00,
2013-01-12 10:36:00,54.1,48.1,29.93,West,270,0.0,2.9,80,0.00,,,0.00,WUHU21623XXSP,2013-01-12 16:36:00,
2013-01-12 10:41:00,54.0,48.0,29.92,West,270,0.0,0.0,80,0.00,,,0.00,WUHU21623XXSP,2013-01-12 16:41:00,
2013-01-12 10:46:00,53.8,47.8,29.92,WNW,292,1.8,6.9,80,0.00,,,0.00,WUHU21623XXSP,2013-01-12 16:46:00,
2013-01-12 10:51:00,52.5,45.5,29.93,WNW,292,0.0,8.7,77,0.00,,,0.00,WUHU21623XXSP,2013-01-12 16:51:00,
2013-01-12 10:56:00,51.4,45.2,29.93,West,270,0.0,8.7,78,0.00,,,0.00,WUHU21623XXSP,2013-01-12 16:56:00,
2013-01-12 11:01:00,51.1,44.5,29.94,West,270,2.7,4.0,78,0.00,,,0.00,WUHU21623XXSP,2013-01-12 17:01:00,
2013-01-12 11:06:00,50.7,42.7,29.94,West,270,6.7,6.7,74,0.00,,,0.00,WUHU21623XXSP,2013-01-12 17:06:00,
2013-01-12 11:11:00,50.4,42.5,29.93,West,270,0.0,6.7,74,0.00,,,0.00,WUHU21623XXSP,2013-01-12 17:11:00,
2013-01-12 11:16:00,50.4,42.4,29.93,West,270,0.0,7.4,74,0.00,,,0.00,WUHU21623XXSP,2013-01-12 17:16:00,
2013-01-12 11:21:00,50.2,42.2,29.94,West,270,0.0,7.4,74,0.00,,,0.00,WUHU21623XXSP,2013-01-12 17:21:00,
2013-01-12 11:26:00,50.2,42.2,29.93,West,270,0.0,0.0,74,0.00,,,0.00,WUHU21623XXSP,2013-01-12 17:26:00,
2013-01-12 11:31:00,49.8,41.5,29.93,West,270,0.0,0.0,73,0.00,,,0.00,WUHU21623XXSP,2013-01-12 17:31:00,
2013-01-12 11:36:00,50.2,41.8,29.93,WNW,292,0.0,0.0,73,0.00,,,0.00,WUHU21623XXSP,2013-01-12 17:36:00,
2013-01-12 11:41:00,50.2,41.8,29.93,WNW,292,0.0,0.0,73,0.00,,,0.00,WUHU21623XXSP,2013-01-12 17:41:00,
2013-01-12 11:46:00,50.2,41.8,29.93,WNW,292,6.3,6.3,73,0.00,,,0.00,WUHU21623XXSP,2013-01-12 17:46:00,
2013-01-12 11:51:00,49.6,41.3,29.92,WNW,292,0.0,6.3,73,0.00,,,0.00,WUHU21623XXSP,2013-01-12 17:51:00,
2013-01-12 11:56:00,49.6,41.6,29.92,WNW,292,0.0,6.3,74,0.00,,,0.00,WUHU21623XXSP,2013-01-12 17:56:00,
2013-01-12 12:01:00,49.5,41.1,29.92,WNW,292,0.0,0.0,73,0.00,,,0.00,WUHU21623XXSP,2013-01-12 18:01:00,
2013-01-12 12:06:00,49.3,41.3,29.92,WNW,292,0.0,4.5,74,0.00,,,0.00,WUHU21623XXSP,2013-01-12 18:06:00,
2013-01-12 12:11:00,48.7,40.7,29.92,NNW,337,2.2,4.5,74,0.00,,,0.00,WUHU21623XXSP,2013-01-12 18:11:00,
2013-01-12 12:16:00,48.7,40.7,29.92,WNW,292,0.0,2.2,74,0.00,,,0.00,WUHU21623XXSP,2013-01-12 18:16:00,
2013-01-12 12:21:00,48.6,40.9,29.92,WNW,292,4.3,4.3,75,0.00,,,0.00,WUHU21623XXSP,2013-01-12 18:21:00,
2013-01-12 12:26:00,48.7,41.1,29.91,West,270,0.0,4.3,75,0.00,,,0.00,WUHU21623XXSP,2013-01-12 18:26:00,
2013-01-12 12:31:00,48.7,40.7,29.92,WNW,292,0.0,0.0,74,0.00,,,0.00,WUHU21623XXSP,2013-01-12 18:31:00,
2013-01-12 12:36:00,48.7,40.4,29.92,WNW,292,0.0,0.0,73,0.00,,,0.00,WUHU21623XXSP,2013-01-12 18:36:00,
2013-01-12 12:41:00,48.7,40.4,29.92,West,270,0.0,0.0,72,0.00,,,0.00,WUHU21623XXSP,2013-01-12 18:41:00,
2013-01-12 12:46:00,48.7,40.1,29.93,West,270,0.0,0.0,71,0.00,,,0.00,WUHU21623XXSP,2013-01-12 18:46:00,
2013-01-12 12:51:00,48.4,39.4,29.92,West,270,0.0,0.0,71,0.00,,,0.00,WUHU21623XXSP,2013-01-12 18:51:00,
2013-01-12 12:56:00,48.2,39.5,29.92,WNW,292,0.0,0.0,72,0.00,,,0.00,WUHU21623XXSP,2013-01-12 18:56:00,
2013-01-12 13:01:00,48.0,39.4,29.92,West,270,0.0,0.0,72,0.00,,,0.00,WUHU21623XXSP,2013-01-12 19:01:00,
2013-01-12 13:06:00,48.0,39.4,29.92,WNW,292,0.0,0.0,72,0.00,,,0.00,WUHU21623XXSP,2013-01-12 19:06:00,
2013-01-12 13:11:00,47.7,38.7,29.92,West,270,0.0,1.6,71,0.00,,,0.00,WUHU21623XXSP,2013-01-12 19:11:00,
2013-01-12 13:16:00,47.7,38.7,29.92,West,270,0.0,1.6,71,0.00,,,0.00,WUHU21623XXSP,2013-01-12 19:16:00,
2013-01-12 13:21:00,47.1,38.2,29.93,WNW,292,1.6,7.2,71,0.00,,,0.00,WUHU21623XXSP,2013-01-12 19:21:00,
2013-01-12 13:26:00,47.1,38.2,29.93,WNW,292,0.0,7.2,71,0.00,,,0.00,WUHU21623XXSP,2013-01-12 19:26:00,
2013-01-12 13:31:00,47.1,38.6,29.93,West,270,0.0,0.0,72,0.00,,,0.00,WUHU21623XXSP,2013-01-12 19:31:00,
2013-01-12 13:36:00,47.1,38.6,29.93,West,270,0.0,0.0,72,0.00,,,0.00,WUHU21623XXSP,2013-01-12 19:36:00,
2013-01-12 13:41:00,47.1,37.5,29.94,WNW,292,7.2,7.2,69,0.00,,,0.00,WUHU21623XXSP,2013-01-12 19:41:00,
2013-01-12 13:46:00,46.8,37.9,29.94,WNW,292,0.0,7.2,71,0.00,,,0.00,WUHU21623XXSP,2013-01-12 19:46:00,
2013-01-12 13:51:00,46.6,38.1,29.94,WNW,292,0.0,5.4,72,0.00,,,0.00,WUHU21623XXSP,2013-01-12 19:51:00,
2013-01-12 13:56:00,46.2,37.4,29.94,WNW,292,0.0,0.0,71,0.00,,,0.00,WUHU21623XXSP,2013-01-12 19:56:00,
2013-01-12 14:01:00,46.2,37.7,29.93,WNW,292,0.0,0.0,72,0.00,,,0.00,WUHU21623XXSP,2013-01-12 20:01:00,
2013-01-12 14:06:00,46.2,37.7,29.93,WNW,292,0.0,0.0,72,0.00,,,0.00,WUHU21623XXSP,2013-01-12 20:06:00,
2013-01-12 14:11:00,46.2,37.7,29.94,WNW,292,0.0,0.0,73,0.00,,,0.00,WUHU21623XXSP,2013-01-12 20:11:00,
2013-01-12 14:16:00,46.0,38.2,29.94,NNW,337,1.1,1.1,74,0.00,,,0.00,WUHU21623XXSP,2013-01-12 20:16:00,
2013-01-12 14:21:00,45.7,38.2,29.94,NW,315,5.4,5.4,75,0.00,,,0.00,WUHU21623XXSP,2013-01-12 20:21:00,
2013-01-12 14:26:00,45.5,37.7,29.95,NW,315,0.0,6.3,75,0.00,,,0.00,WUHU21623XXSP,2013-01-12 20:26:00,
2013-01-12 14:31:00,44.6,37.5,29.95,NW,315,4.7,6.5,76,0.00,,,0.00,WUHU21623XXSP,2013-01-12 20:31:00,
2013-01-12 14:36:00,44.4,37.6,29.95,NW,315,2.9,6.5,77,0.00,,,0.00,WUHU21623XXSP,2013-01-12 20:36:00,
2013-01-12 14:41:00,44.4,37.6,29.95,NNW,337,3.6,6.0,77,0.00,,,0.00,WUHU21623XXSP,2013-01-12 20:41:00,
2013-01-12 14:46:00,44.1,37.3,29.96,NW,315,0.0,6.0,77,0.00,,,0.00,WUHU21623XXSP,2013-01-12 20:46:00,
2013-01-12 14:51:00,43.9,37.1,29.97,NW,315,0.0,2.5,77,0.00,,,0.00,WUHU21623XXSP,2013-01-12 20:51:00,
2013-01-12 14:56:00,44.1,37.3,29.96,NW,315,0.0,0.0,77,0.00,,,0.00,WUHU21623XXSP,2013-01-12 20:56:00,
2013-01-12 15:01:00,44.2,37.3,29.98,NW,315,0.0,0.0,77,0.00,,,0.00,WUHU21623XXSP,2013-01-12 21:01:00,
2013-01-12 15:07:00,44.2,37.5,29.97,NW,315,0.0,0.0,77,0.00,,,0.00,WUHU21623XXSP,2013-01-12 21:07:00,
2013-01-12 15:12:00,44.2,37.5,29.97,NW,315,0.0,0.0,77,0.00,,,0.00,WUHU21623XXSP,2013-01-12 21:12:00,
2013-01-12 15:17:00,43.9,36.8,29.97,NW,315,0.0,0.0,76,0.00,,,0.00,WUHU21623XXSP,2013-01-12 21:17:00,
2013-01-12 15:22:00,43.9,37.1,29.96,NNW,337,0.0,0.0,77,0.00,,,0.00,WUHU21623XXSP,2013-01-12 21:22:00,
2013-01-12 15:27:00,43.7,36.6,29.95,NW,315,1.8,1.8,76,0.00,,,0.00,WUHU21623XXSP,2013-01-12 21:27:00,
2013-01-12 15:32:00,43.5,36.8,29.95,NW,315,0.0,1.8,77,0.00,,,0.00,WUHU21623XXSP,2013-01-12 21:32:00,
2013-01-12 15:37:00,43.5,36.8,29.95,NW,315,0.0,0.0,77,0.00,,,0.00,WUHU21623XXSP,2013-01-12 21:37:00,
2013-01-12 15:42:00,43.2,36.8,29.95,NW,315,4.7,6.7,77,0.00,,,0.00,WUHU21623XXSP,2013-01-12 21:42:00,
2013-01-12 15:47:00,42.6,36.2,29.95,NW,315,7.8,7.8,78,0.00,,,0.00,WUHU21623XXSP,2013-01-12 21:47:00,
2013-01-12 15:52:00,42.3,36.2,29.94,NW,315,0.0,7.8,79,0.00,,,0.00,WUHU21623XXSP,2013-01-12 21:52:00,
2013-01-12 15:57:00,41.9,35.8,29.93,WNW,292,6.9,7.8,79,0.00,,,0.00,WUHU21623XXSP,2013-01-12 21:57:00,
2013-01-12 16:02:00,41.9,35.8,29.93,NNW,337,3.6,6.9,79,0.00,,,0.00,WUHU21623XXSP,2013-01-12 22:02:00,
2013-01-12 16:07:00,41.9,36.1,29.94,NNW,337,0.0,6.9,80,0.00,,,0.00,WUHU21623XXSP,2013-01-12 22:07:00,
2013-01-12 16:12:00,41.5,35.8,29.94,NW,315,0.0,2.7,80,0.00,,,0.00,WUHU21623XXSP,2013-01-12 22:12:00,
2013-01-12 16:17:00,41.5,35.8,29.94,NW,315,5.4,6.5,80,0.00,,,0.00,WUHU21623XXSP,2013-01-12 22:17:00,
2013-01-12 16:22:00,41.0,35.2,29.95,NW,315,7.8,7.8,80,0.00,,,0.00,WUHU21623XXSP,2013-01-12 22:22:00,
2013-01-12 16:27:00,40.8,35.1,29.95,NNW,337,8.9,8.9,80,0.00,,,0.00,WUHU21623XXSP,2013-01-12 22:27:00,
2013-01-12 16:32:00,40.6,34.9,29.94,NW,315,6.0,11.0,80,0.00,,,0.00,WUHU21623XXSP,2013-01-12 22:32:00,
2013-01-12 16:37:00,40.3,34.6,29.95,NW,315,6.5,11.0,80,0.00,,,0.00,WUHU21623XXSP,2013-01-12 22:37:00,
2013-01-12 16:42:00,40.1,34.4,29.95,NW,315,6.5,6.5,80,0.00,,,0.00,WUHU21623XXSP,2013-01-12 22:42:00,
2013-01-12 16:47:00,39.7,33.9,29.95,NW,315,10.5,12.1,79,0.00,,,0.00,WUHU21623XXSP,2013-01-12 22:47:00,
2013-01-12 16:52:00,39.7,33.8,29.95,NW,315,9.6,12.1,79,0.00,,,0.00,WUHU21623XXSP,2013-01-12 22:52:00,
2013-01-12 16:57:00,39.4,33.4,29.95,WNW,292,8.3,10.5,79,0.00,,,0.00,WUHU21623XXSP,2013-01-12 22:57:00,
2013-01-12 17:02:00,39.0,33.4,29.96,WNW,292,7.8,8.3,79,0.00,,,0.00,WUHU21623XXSP,2013-01-12 23:02:00,
2013-01-12 17:07:00,38.8,33.1,29.96,WNW,292,6.9,8.3,79,0.00,,,0.00,WUHU21623XXSP,2013-01-12 23:07:00,
2013-01-12 17:12:00,38.5,32.6,29.95,NW,315,14.1,14.1,79,0.00,,,0.00,WUHU21623XXSP,2013-01-12 23:12:00,
2013-01-12 17:17:00,38.5,32.6,29.95,NW,315,8.9,14.1,78,0.00,,,0.00,WUHU21623XXSP,2013-01-12 23:17:00,
2013-01-12 17:22:00,38.1,31.5,29.93,NW,315,8.1,8.9,77,0.00,,,0.00,WUHU21623XXSP,2013-01-12 23:22:00,
2013-01-12 17:27:00,37.9,31.7,29.94,NNW,337,6.9,8.9,78,0.00,,,0.00,WUHU21623XXSP,2013-01-12 23:27:00,
2013-01-12 17:32:00,37.9,31.4,29.94,North,0,0.0,8.5,77,0.00,,,0.00,WUHU21623XXSP,2013-01-12 23:32:00,
2013-01-12 17:37:00,37.8,31.4,29.93,NNW,337,5.6,8.5,77,0.00,,,0.00,WUHU21623XXSP,2013-01-12 23:37:00,
2013-01-12 17:42:00,37.2,30.8,29.92,NW,315,1.6,7.8,77,0.00,,,0.00,WUHU21623XXSP,2013-01-12 23:42:00,
2013-01-12 17:47:00,37.2,30.7,29.92,NW,315,7.6,9.6,77,0.00,,,0.00,WUHU21623XXSP,2013-01-12 23:47:00,
2013-01-12 17:52:00,37.0,31.0,29.92,NW,315,7.6,9.6,78,0.00,,,0.00,WUHU21623XXSP,2013-01-12 23:52:00,
2013-01-12 17:57:00,36.7,30.5,29.91,NNW,337,3.6,7.8,78,0.00,,,0.00,WUHU21623XXSP,2013-01-12 23:57:00,
2013-01-12 18:02:00,36.5,30.1,29.92,NW,315,0.2,7.8,77,0.00,,,0.00,WUHU21623XXSP,2013-01-13 00:02:00,
2013-01-12 18:07:00,36.3,30.1,29.92,NNW,337,7.8,7.8,78,0.00,,,0.00,WUHU21623XXSP,2013-01-13 00:07:00,
2013-01-12 18:12:00,36.3,30.4,29.93,NW,315,7.8,7.8,79,0.00,,,0.00,WUHU21623XXSP,2013-01-13 00:12:00,
2013-01-12 18:17:00,36.3,30.4,29.93,NW,315,7.8,7.8,79,0.00,,,0.00,WUHU21623XXSP,2013-01-13 00:17:00,
2013-01-12 18:22:00,36.3,30.4,29.93,NW,315,8.1,8.1,79,0.00,,,0.00,WUHU21623XXSP,2013-01-13 00:22:00,
2013-01-12 18:27:00,36.3,30.4,29.94,NW,315,0.0,8.1,79,0.00,,,0.00,WUHU21623XXSP,2013-01-13 00:27:00,
2013-01-12 18:32:00,36.3,30.7,29.93,NNW,337,0.0,8.1,80,0.00,,,0.00,WUHU21623XXSP,2013-01-13 00:32:00,
2013-01-12 18:37:00,36.3,30.7,29.93,NNW,337,6.9,7.2,80,0.00,,,0.00,WUHU21623XXSP,2013-01-13 00:37:00,
2013-01-12 18:42:00,36.3,30.7,29.92,NNW,337,4.3,6.9,80,0.00,,,0.00,WUHU21623XXSP,2013-01-13 00:42:00,
2013-01-12 18:47:00,36.1,30.6,29.92,NNW,337,6.3,6.3,80,0.00,,,0.00,WUHU21623XXSP,2013-01-13 00:47:00,
2013-01-12 18:52:00,36.1,30.6,29.91,NW,315,0.0,6.3,80,0.00,,,0.00,WUHU21623XXSP,2013-01-13 00:52:00,
2013-01-12 18:57:00,36.1,30.6,29.91,NNW,337,7.8,7.8,80,0.00,,,0.00,WUHU21623XXSP,2013-01-13 00:57:00,
2013-01-12 19:02:00,36.1,30.6,29.91,NNE,22,5.4,9.8,80,0.00,,,0.00,WUHU21623XXSP,2013-01-13 01:02:00,
2013-01-12 19:07:00,36.1,30.6,29.90,NNW,337,8.1,9.8,80,0.00,,,0.00,WUHU21623XXSP,2013-01-13 01:07:00,
2013-01-12 19:12:00,36.1,30.6,29.90,WNW,292,8.1,8.1,80,0.00,,,0.00,WUHU21623XXSP,2013-01-13 01:12:00,
2013-01-12 19:17:00,36.1,30.2,29.90,North,0,5.6,9.2,79,0.00,,,0.00,WUHU21623XXSP,2013-01-13 01:17:00,
2013-01-12 19:22:00,36.1,29.9,29.90,NNW,337,6.7,9.2,78,0.00,,,0.00,WUHU21623XXSP,2013-01-13 01:22:00,
2013-01-12 19:27:00,35.8,29.7,29.90,WNW,292,7.6,7.8,77,0.00,,,0.00,WUHU21623XXSP,2013-01-13 01:27:00,
2013-01-12 19:32:00,35.8,29.2,29.90,NW,315,10.3,10.3,77,0.00,,,0.00,WUHU21623XXSP,2013-01-13 01:32:00,
2013-01-12 19:37:00,35.8,29.2,29.89,NNW,337,10.7,10.7,77,0.00,,,0.00,WUHU21623XXSP,2013-01-13 01:37:00,
2013-01-12 19:42:00,35.4,29.2,29.89,NW,315,13.4,13.4,78,0.00,,,0.00,WUHU21623XXSP,2013-01-13 01:42:00,
2013-01-12 19:47:00,35.4,29.5,29.89,North,0,7.6,13.4,79,0.00,,,0.00,WUHU21623XXSP,2013-01-13 01:47:00,
2013-01-12 19:52:00,35.4,29.5,29.89,NW,315,7.4,7.6,79,0.00,,,0.00,WUHU21623XXSP,2013-01-13 01:52:00,
2013-01-12 19:57:00,35.4,29.5,29.88,North,0,6.7,7.4,79,0.00,,,0.00,WUHU21623XXSP,2013-01-13 01:57:00,
2013-01-12 20:02:00,35.4,29.5,29.88,NW,315,4.9,6.9,79,0.00,,,0.00,WUHU21623XXSP,2013-01-13 02:02:00,
2013-01-12 20:07:00,35.4,29.5,29.88,NNW,337,7.4,7.8,79,0.00,,,0.00,WUHU21623XXSP,2013-01-13 02:07:00,
2013-01-12 20:12:00,35.2,29.3,29.88,WNW,292,8.9,8.9,79,0.00,,,0.00,WUHU21623XXSP,2013-01-13 02:12:00,
2013-01-12 20:17:00,35.1,29.5,29.88,NW,315,4.9,8.9,80,0.00,,,0.00,WUHU21623XXSP,2013-01-13 02:17:00,
2013-01-12 20:22:00,34.7,29.4,29.89,NW,315,8.7,8.7,81,0.00,,,0.00,WUHU21623XXSP,2013-01-13 02:22:00,
2013-01-12 20:27:00,34.5,29.4,29.89,NNW,337,6.5,8.7,82,0.00,,,0.00,WUHU21623XXSP,2013-01-13 02:27:00,
2013-01-12 20:32:00,34.3,29.3,29.88,WNW,292,7.2,7.2,82,0.00,,,0.00,WUHU21623XXSP,2013-01-13 02:32:00,
2013-01-12 20:37:00,34.2,29.4,29.88,NW,315,11.0,14.5,83,0.00,,,0.00,WUHU21623XXSP,2013-01-13 02:37:00,
2013-01-12 20:42:00,34.0,29.6,29.89,WNW,292,7.6,14.5,84,0.00,,,0.00,WUHU21623XXSP,2013-01-13 02:42:00,
2013-01-12 20:47:00,33.8,29.4,29.89,WNW,292,7.6,7.8,84,0.00,,,0.00,WUHU21623XXSP,2013-01-13 02:47:00,
2013-01-12 20:52:00,33.6,29.5,29.90,WNW,292,8.5,8.5,85,0.00,,,0.00,WUHU21623XXSP,2013-01-13 02:52:00,
2013-01-12 20:57:00,33.6,29.5,29.90,NNW,337,15.2,15.2,85,0.02,,,0.02,WUHU21623XXSP,2013-01-13 02:57:00,
2013-01-12 21:03:00,33.4,29.5,29.90,NNW,337,15.2,15.2,86,0.02,,,0.02,WUHU21623XXSP,2013-01-13 03:03:00,
2013-01-12 21:08:00,33.4,29.6,29.89,NNW,337,10.5,15.2,86,0.02,,,0.02,WUHU21623XXSP,2013-01-13 03:08:00,
2013-01-12 21:13:00,33.3,29.5,29.89,NW,315,6.5,15.2,86,0.02,,,0.02,WUHU21623XXSP,2013-01-13 03:13:00,
2013-01-12 21:18:00,33.3,29.8,29.88,NNW,337,12.8,12.8,87,0.02,,,0.02,WUHU21623XXSP,2013-01-13 03:18:00,
2013-01-12 21:23:00,33.1,29.6,29.89,NW,315,10.3,12.8,87,0.02,,,0.02,WUHU21623XXSP,2013-01-13 03:23:00,
2013-01-12 21:28:00,33.1,29.6,29.89,NW,315,8.1,12.8,87,0.02,,,0.02,WUHU21623XXSP,2013-01-13 03:28:00,
2013-01-12 21:33:00,32.9,29.4,29.89,NNW,337,12.8,12.8,87,0.02,,,0.02,WUHU21623XXSP,2013-01-13 03:33:00,
2013-01-12 21:38:00,32.7,29.4,29.90,NW,315,9.4,12.8,87,0.04,,,0.04,WUHU21623XXSP,2013-01-13 03:38:00,
2013-01-12 21:43:00,32.7,29.3,29.89,NNW,337,10.7,10.7,87,0.04,,,0.04,WUHU21623XXSP,2013-01-13 03:43:00,
2013-01-12 21:48:00,32.7,29.6,29.90,NNW,337,3.6,10.7,88,0.04,,,0.04,WUHU21623XXSP,2013-01-13 03:48:00,
2013-01-12 21:53:00,32.7,29.6,29.89,NNW,337,0.0,13.2,88,0.02,,,0.04,WUHU21623XXSP,2013-01-13 03:53:00,
2013-01-12 21:58:00,32.7,29.6,29.88,NNW,337,0.0,13.2,88,0.02,,,0.04,WUHU21623XXSP,2013-01-13 03:58:00,
2013-01-12 22:03:00,32.5,29.4,29.87,NNW,337,0.0,0.0,88,0.02,,,0.04,WUHU21623XXSP,2013-01-13 04:03:00,
2013-01-12 22:08:00,32.5,29.4,29.86,NNW,337,0.0,0.0,88,0.02,,,0.04,WUHU21623XXSP,2013-01-13 04:08:00,
2013-01-12 22:13:00,32.5,29.4,29.85,NNW,337,0.0,0.0,88,0.02,,,0.04,WUHU21623XXSP,2013-01-13 04:13:00,
2013-01-12 22:18:00,32.4,29.2,29.85,NNW,337,0.0,0.0,88,0.02,,,0.04,WUHU21623XXSP,2013-01-13 04:18:00,
2013-01-12 22:23:00,32.5,29.4,29.85,NNW,337,0.0,0.0,88,0.02,,,0.04,WUHU21623XXSP,2013-01-13 04:23:00,
2013-01-12 22:28:00,32.5,29.4,29.85,NNW,337,0.0,0.0,88,0.02,,,0.04,WUHU21623XXSP,2013-01-13 04:28:00,
2013-01-12 22:33:00,32.5,29.4,29.85,NNW,337,0.0,0.0,88,0.00,,,0.04,WUHU21623XXSP,2013-01-13 04:33:00,
2013-01-12 22:38:00,32.5,29.1,29.86,NNW,337,0.0,0.0,87,0.00,,,0.04,WUHU21623XXSP,2013-01-13 04:38:00,
2013-01-12 22:43:00,32.7,29.3,29.87,NNW,337,0.0,0.0,87,0.00,,,0.04,WUHU21623XXSP,2013-01-13 04:43:00,
2013-01-12 22:48:00,32.7,29.3,29.88,NNW,337,0.0,0.0,87,0.00,,,0.04,WUHU21623XXSP,2013-01-13 04:48:00,
2013-01-12 22:53:00,32.7,29.3,29.88,NNW,337,0.0,0.0,87,0.00,,,0.04,WUHU21623XXSP,2013-01-13 04:53:00,
2013-01-12 22:58:00,32.7,29.3,29.88,NNW,337,0.0,0.0,87,0.00,,,0.04,WUHU21623XXSP,2013-01-13 04:58:00,
2013-01-12 23:00:00,32.7,29.3,29.88,NNW,337,0.0,0.0,87,0.00,,,0.04,WUHU21623XXSP,2013-01-13 05:00:00,
2013-01-12 23:02:00,32.7,29.3,29.87,NNW,337,0.0,0.0,87,0.00,,,0.04,WUHU21623XXSP,2013-01-13 05:02:00,
2013-01-12 23:03:00,32.7,29.3,29.87,NNW,337,0.0,0.0,87,0.00,,,0.04,WUHU21623XXSP,2013-01-13 05:03:00,
2013-01-12 23:08:00,32.5,29.1,29.87,NNW,337,0.0,0.0,87,0.00,,,0.04,WUHU21623XXSP,2013-01-13 05:08:00,
2013-01-12 23:13:00,32.5,29.1,29.86,NNW,337,0.0,0.0,87,0.00,,,0.04,WUHU21623XXSP,2013-01-13 05:13:00,
2013-01-12 23:18:00,32.5,29.4,29.87,NNW,337,0.0,0.0,88,0.00,,,0.04,WUHU21623XXSP,2013-01-13 05:18:00,
2013-01-12 23:23:00,32.5,29.4,29.87,NNW,337,0.0,0.0,88,0.00,,,0.04,WUHU21623XXSP,2013-01-13 05:23:00,
2013-01-12 23:28:00,32.5,29.4,29.86,NNW,337,0.0,0.0,88,0.00,,,0.04,WUHU21623XXSP,2013-01-13 05:28:00,
2013-01-12 23:33:00,32.4,29.2,29.86,NNW,337,0.0,0.0,88,0.00,,,0.04,WUHU21623XXSP,2013-01-13 05:33:00,
2013-01-12 23:38:00,32.4,29.2,29.87,NNW,337,0.0,0.0,88,0.00,,,0.04,WUHU21623XXSP,2013-01-13 05:38:00,
2013-01-12 23:43:00,32.5,29.4,29.87,NNW,337,0.0,0.0,88,0.00,,,0.04,WUHU21623XXSP,2013-01-13 05:43:00,
2013-01-12 23:48:00,32.5,29.7,29.87,NNW,337,0.0,0.0,89,0.00,,,0.04,WUHU21623XXSP,2013-01-13 05:48:00,
2013-01-12 23:53:00,32.5,29.7,29.87,NNW,337,0.0,0.0,89,0.00,,,0.04,WUHU21623XXSP,2013-01-13 05:53:00,
2013-01-12 23:58:00,32.5,29.7,29.87,NNW,337,0.0,0.0,89,0.00,,,0.00,WUHU21623XXSP,2013-01-13 05:58:00,